Location: *
(58.7167°N, 26.1833°E)
Time: 10:45:50
(UTC+00:00)

Cosmos 1470 - Pass Details

Date: 25 August 2019
Orbit: 522 x 542 km, 82.5° (Epoch: 18 September)

Event Time Altitude Azimuth Distance (km) Brightness Sun altitude
Exits shadow 21:59:17 25° 98° (E) 1,092 4.2 -20.6°
Maximum altitude 21:59:38 25° 89° (E) 1,081 4.2 -20.6°
Drops below altitude 10° 22:02:53 10° 33° (NNE) 1,781 6.2 -20.6°
Sets 22:05:17 0° 20° (NNE) 2,679 7.5 -20.6°
